DELTA 1 DEB, 10750

Orbit data source: Space-Track

DELTA 1 DEB, 10750 is space debris in SSO originally from a launch on Thu, 29 Jul 1976 UTC launched from the Air Force Western Test Range (AFWTR). Debris objects in space refer to the collection of defunct objects orbiting the Earth. Examples of debris include non-operational satellites, rocket bodies, and fragments generated from explosions, collisions, or faulty payload assembly.

Loading next visibility...
Identifier
10750, 1976-077AX
Orbit
SSO
Country
Flag of USUS
Related business
Manufacturer
Unknown
Mission
Spacecraft
Bus & Motor
Unknown
Mass
Unknown
Launch date (UTC)
1976-07-29 (50 years ago)
Launch vehicle
Unknown
Launch site
Air Force Western Test Range (AFWTR)
Object type
Payload
Rocket body
Debris
Shape & HBR
Unknown shape, 0.1 m
Radar Cross Section
Medium (>0.1 m² and <1 m²)

Expand to show TLE details & history
Last TLE update: 1 day ago

TLE from 1 day ago
0 DELTA 1 DEB
1 10750U 76077AX  26170.81293447  .00003161  00000-0  18932-2 0  9990
2 10750 101.6522 132.7986 0373569 126.1174 237.5159 13.78376288366014
Epoch: 2026-06-19T19:30Z
TLE epoch observation values (Epoch: 2026-06-19T19:30:37.538Z)
Latitude
-0.00006°
Longitude
-67.89433°
Altitude
1,126.936 km
Speed
7.212 km/s
True Right ascension
08h 51m 11s
True Declination
0° 00' 00"
Sunlit
Object was in daylight at epoch
Visualization orbit readout
Latitude
Unknown
Longitude
Unknown
Altitude
Unknown
Speed
Unknown
Apparent Right ascension
Unknown
Apparent Declination
Unknown
Sunlit
N/A
Visualization observer readout
Local Sidereal Time
06:16:26
Azimuth
Unknown
Elevation
Unknown
Doppler factor
Unknown
Orbital elements
Apogee altitude
1,241.413 km
Perigee altitude
692.629 km
Semi-major axis
7,345.158 km
Eccentricity
0.03736
Inclination
101.6522°
RAAN
132.7986°
Arg. of periapsis
126.1174°
True anomaly
233.99552°
Mean anomaly
237.5159°
Eccentric anomaly
235.74674°
Mean motion
3.4478 °/min
Orbital period
104.41 mins
BSTAR
0.0018932
Loading maneuver chart data...
Computing Atmospheric mass density...
Loading historical data...
Loading historical data...
Loading historical data...
Loading historical data...
Loading historical data...
Loading historical data...
Loading historical data...

Documentation

Showing up to 5 results
|